TimeMST,TemperatureF,Dew PointF,Humidity,Sea Level PressureIn,VisibilityMPH,Wind Direction,Wind SpeedMPH,Gust SpeedMPH,PrecipitationIn,Events,Conditions,WindDirDegrees,DateUTC
12:53 AM,37.9,34.0,86,29.95,10.0,Calm,Calm,-,N/A,,Partly Cloudy,0,2013-02-21 07:53:00
1:53 AM,37.9,35.1,89,29.97,10.0,Calm,Calm,-,N/A,,Mostly Cloudy,0,2013-02-21 08:53:00
2:53 AM,39.0,35.1,86,29.97,10.0,Calm,Calm,-,N/A,,Overcast,0,2013-02-21 09:53:00
3:53 AM,39.0,35.1,86,29.97,10.0,SE,3.5,-,N/A,,Overcast,140,2013-02-21 10:53:00
4:53 AM,39.9,34.0,79,29.98,10.0,SE,3.5,-,N/A,,Overcast,130,2013-02-21 11:53:00
5:53 AM,39.9,34.0,79,29.99,10.0,Calm,Calm,-,N/A,,Overcast,0,2013-02-21 12:53:00
6:53 AM,39.9,34.0,79,30.00,10.0,Calm,Calm,-,N/A,,Scattered Clouds,0,2013-02-21 13:53:00
7:53 AM,41.0,34.0,76,30.01,10.0,Calm,Calm,-,N/A,,Clear,0,2013-02-21 14:53:00
8:53 AM,45.0,34.0,65,30.02,10.0,SE,6.9,-,N/A,,Clear,140,2013-02-21 15:53:00
9:53 AM,46.0,34.0,63,30.03,10.0,SE,6.9,-,N/A,,Clear,130,2013-02-21 16:53:00
11:53 AM,50.0,35.1,57,30.03,10.0,SE,5.8,-,N/A,,Clear,130,2013-02-21 18:53:00
12:53 PM,52.0,35.1,53,30.01,10.0,SSW,6.9,-,N/A,,Mostly Cloudy,200,2013-02-21 19:53:00
1:53 PM,52.0,34.0,50,29.98,10.0,ESE,5.8,-,N/A,,Scattered Clouds,110,2013-02-21 20:53:00
2:53 PM,53.1,33.1,47,29.97,10.0,Calm,Calm,-,N/A,,Mostly Cloudy,0,2013-02-21 21:53:00
3:53 PM,53.1,32.0,45,29.95,10.0,Calm,Calm,-,N/A,,Overcast,0,2013-02-21 22:53:00
4:53 PM,53.1,32.0,45,29.94,10.0,Calm,Calm,-,N/A,,Partly Cloudy,0,2013-02-21 23:53:00
5:53 PM,53.1,32.0,45,29.94,10.0,Calm,Calm,-,N/A,,Clear,0,2013-02-22 00:53:00
6:53 PM,53.1,32.0,45,29.96,10.0,Calm,Calm,-,N/A,,Clear,0,2013-02-22 01:53:00
7:53 PM,52.0,36.0,54,29.97,10.0,NE,4.6,-,N/A,,Clear,50,2013-02-22 02:53:00
8:53 PM,51.1,36.0,56,29.99,10.0,Calm,Calm,-,N/A,,Scattered Clouds,0,2013-02-22 03:53:00
9:53 PM,48.0,37.9,68,30.00,10.0,Calm,Calm,-,N/A,,Clear,0,2013-02-22 04:53:00
10:53 PM,46.0,37.9,73,30.01,10.0,NNW,3.5,-,N/A,,Clear,340,2013-02-22 05:53:00
11:53 PM,46.0,37.9,73,30.00,10.0,NE,3.5,-,N/A,,Clear,50,2013-02-22 06:53:00